STARLINK-32435 (61259 NORAD) Tracking and Keplerian Element Data

This shows tracking and keplerian element data for the satellite.

Feedback or suggestion? Click here.




ElementValue
Catalog61259
NameSTARLINK-32435
Epoch Orbit398
Epoch Day286.91668981
Epoch Year2024
RAAN65.2061
Inclination53.1583
Eccentricity0.0001767
Argument of Perigee28.6711
Mean Anonmoly348.4933
Mean Motion15.73709288
Decay Rate0.00047735
L11 61259U 24175S 24286.91668981 .00047735 00000+0 33520-3 0 9993
L22 61259 53.1583 65.2061 0001767 28.6711 348.4933 15.73709288 3980



Live tracking and technical data element details for STARLINK-32435 (NORAD 61259). STARLINK-32435 can be tracked NOW for your location showing map with azimuth and elevation plus other details from your city location.







IsCatalogInMostPopularTable: catalog: 61259, numindb: 23
Update: records affected: 1



GetName: 61259 STARLINK-32435

Hit Count: updated at: Wed, 04 Dec 2024 13:18:33 GMT